Miscellaneous Local Product
Issued by NWS North Platte, NE

Home | Current Version | Previous Version | Text Only | Print | Product List | Glossary On
Versions: 1 2 3 4 5 6 7 8 9 10 11 12 13 14 15 16 17 18 19 20 21 22 23 24 25 26 27 28 29 30 31 32 33 34 35 36 37 38 39 40 41 42 43 44 45 46 47 48 49 50
000
AXUS43 KLBF 212310
MISLBF


WESTERN AND NORTH CENTRAL NEBRASKA HOURLY WEATHER ROUNDUP
NATIONAL WEATHER SERVICE NORTH PLATTE NE
600 PM CDT TUE MAR 21 2017

NOTE: "FAIR" INDICATES FEW OR NO CLOUDS BELOW 12,000 FEET WITH NO
SIGNIFICANT WEATHER AND/OR OBSTRUCTIONS TO VISIBILITY.

NOTE: STATIONS NOT REPORTING VARIABLES SUCH AS SKY/WEATHER OR
PRESSURE ARE PROVIDED BY RAWS AND APRS NETWORKS AND ARE NOT UNDER
NATIONAL WEATHER SERVICE QUALITY CONTROL.

...OBSERVATIONS IN AND NEAR THE EASTERN PANHANDLE OF NEBRASKA...

CITY           SKY/WX    TMP DP  RH WIND       PRES   REMARKS
PINE RIDGE     CLOUDY    36  35  96 E15G28    30.24F WCI  27
CHADRON        MOSUNNY   44  35  70 E23       30.17F
ALLIANCE       MOSUNNY   54  27  35 SE22G28   30.15F
SIDNEY         PTSUNNY   55  32  41 SE16      30.18R
CRESCENT LAKE    N/A     52  26  36 SE10G20     N/A
$$

...OBSERVATIONS IN NORTHERN NEBRASKA AND FAR SOUTHERN SOUTH DAKOTA...

CITY           SKY/WX    TMP DP  RH WIND       PRES   REMARKS
WINNER         CLOUDY    37  24  59 NE8       30.40F WCI  31
VALENTINE      CLOUDY    33  28  81 E9        30.36F WCI  25
THEDFORD       CLOUDY    37  32  82 E12       30.32F WCI  29
AINSWORTH      CLOUDY    32  30  92 E8        30.35F WCI  25
O`NEILL        CLOUDY    35  32  89 NW5       30.38F WCI  31
ORD            CLOUDY    42  24  49 NE10      30.33F
BROKEN BOW     CLOUDY    41  32  70 E14       30.31F
VALENTINE NWR    N/A     31  30  96 E10         N/A  WCI  22
HALSEY           N/A     36  31  82 E7          N/A  WCI  30
BUTTE            N/A     36  23  59 NE7         N/A  WCI  30
CHAMBERS         N/A     36  29  74 N3          N/A
EWING            N/A     36  30  80 N3          N/A
$$

...OBSERVATIONS IN SOUTHWEST NEBRASKA AND FAR NORTHEAST COLORADO...

CITY           SKY/WX    TMP DP  RH WIND       PRES   REMARKS
WRAY           FAIR      61  30  31 E18G25    30.15F
HOLYOKE        FAIR      59  28  31 SE16      30.18R
IMPERIAL       PTSUNNY   55  23  28 SE16G29   30.19F
OGALLALA       MOSUNNY   55  25  31 SE12G18   30.21S
NORTH PLATTE   CLOUDY    48  32  53 E20       30.26S
MCCOOK         SUNNY     57  27  31 SE20      30.22S
LEXINGTON      PTSUNNY   47  34  60 E16       30.29R
STAPLETON        N/A     38  31  77 E6          N/A  WCI  33
GOTHENBURG       N/A     45  32  59 E14         N/A
CALLAWAY         N/A     40  34  78 E10         N/A  WCI  33
$$

...OBSERVATIONS IN CENTRAL LINCOLN COUNTY AREA...

CITY           SKY/WX    TMP DP  RH WIND       PRES   REMARKS
N.P. AIRPORT   CLOUDY    48  32  53 E20       30.26S
N.P. DOWNTOWN    N/A     46  34  63 E12G21      N/A
N.P. SOUTHEAST   N/A     46  33  60 E9          N/A
N.P. HILLCREST   N/A     44  34  67 E22G29      N/A
$$

...SOME OBSERVATIONS FROM AROUND THE REGION...

CITY           SKY/WX    TMP DP  RH WIND       PRES   REMARKS
DENVER         CLOUDY    65  36  34 NW10      30.05F
LIMON          CLOUDY    60  36  40 SE21G30   30.11F
ASPEN          CLOUDY    61  14  16 VRB7      30.14F
LARAMIE        CLOUDY    53  35  50 SE12      30.08F
GILLETTE       PTSUNNY   42  34  73 SE21      30.08F
CHEYENNE       CLOUDY    54  34  46 SE14      30.11F
SCOTTSBLUFF    MOSUNNY   58  33  39 SE18G30   30.11F
GRAND ISLAND   CLOUDY    44  32  62 NE16      30.34S
OMAHA          PTSUNNY   46  27  47 N15       30.35S
SIOUX FALLS    PTSUNNY   36  21  54 NE15      30.41F WCI  27
PIERRE         CLOUDY    36  18  48 E10       30.41S WCI  28
RAPID CITY     FOG       30  29  96 SE13      30.28F VSB<1/4 WCI  20
BISMARCK       SUNNY     30  17  58 E13G18    30.47S WCI  20
KANSAS CITY    MOSUNNY   58  26  29 NE16      30.24S
HILL CITY      SUNNY     58  27  30 E17       30.22F
WICHITA        PTSUNNY   61  40  45 NE22      30.13F
DODGE CITY     SUNNY     61  34  36 NE16G29   30.14F
OKLAHOMA CITY  PTSUNNY   79  54  41 N15       29.96S
DALLAS         MOSUNNY   84  59  42 S17       29.94F
AMARILLO       SUNNY     74  42  31 NE16      30.08S
$$




USA.gov is the U.S. government's official web portal to all federal, state and local government web resources and services.